This is the latest recevied weather packets stored in our database for station/object WA0GMH-1. If no packets are shown the sender has not sent any weather packets the latest 10 day(s).
| Time | Temp. | Humidity | Pressure | Rain* | Wind** | Luminosity | Snow |
|---|---|---|---|---|---|---|---|
| 1777651194 | 8.89° C | 17% | 1019.8 hPa | 0 mm | - | - | - |
| 1777650792 | 8.33° C | 20% | 1019.8 hPa | 0 mm | - | - | - |
| 1777650390 | 8.33° C | 20% | 1019.8 hPa | 0 mm | - | - | - |
| 1777649988 | 8.33° C | 21% | 1020 hPa | 0 mm | - | - | - |
| 1777649585 | 7.78° C | 25% | 1019.9 hPa | 0 mm | - | - | - |
| 1777649183 | 7.78° C | 26% | 1020 hPa | 0 mm | - | - | - |
| 1777648781 | 7.78° C | 24% | 1020 hPa | 0 mm | - | - | - |
| 1777648379 | 7.22° C | 29% | 1020 hPa | 0 mm | - | - | - |
| 1777647976 | 7.22° C | 32% | 1019.9 hPa | 0 mm | - | - | - |
| 1777647574 | 7.22° C | 32% | 1020 hPa | 0 mm | - | - | - |
| 1777647172 | 6.67° C | 34% | 1020 hPa | 0 mm | - | - | - |
| 1777646770 | 6.67° C | 36% | 1020.2 hPa | 0 mm | - | - | - |
| 1777646367 | 6.11° C | 42% | 1019.9 hPa | 0 mm | - | - | - |
| 1777645965 | 6.11° C | 44% | 1019.7 hPa | 0 mm | - | - | - |
| 1777645563 | 5.56° C | 45% | 1019.8 hPa | 0 mm | - | - | - |
| 1777645161 | 5.56° C | 49% | 1019.8 hPa | 0 mm | - | - | - |
| 1777644758 | 5° C | 51% | 1019.8 hPa | 0 mm | - | - | - |
| 1777644356 | 5° C | 54% | 1019.7 hPa | 0 mm | - | - | - |
| 1777643954 | 4.44° C | 54% | 1019.8 hPa | 0 mm | - | - | - |
| 1777643552 | 4.44° C | 56% | 1020.1 hPa | 0 mm | - | - | - |
| 1777643149 | 3.89° C | 58% | 1019.8 hPa | 0 mm | - | - | - |
| 1777642747 | 3.89° C | 61% | 1019.9 hPa | 0 mm | - | - | - |
| 1777642345 | 3.33° C | 62% | 1019.5 hPa | 0 mm | - | - | - |
| 1777641943 | 3.33° C | 64% | 1019.5 hPa | 0 mm | - | - | - |
| 1777641540 | 2.78° C | 65% | 1019.4 hPa | 0 mm | - | - | - |
* Rain since midnight (hover to see other rain measurements)
** Current wind speed in m/s (hover to see current wind gust speed)